Content
SEND FEEDBACK

Daily
Averages
Monthly
Summary
Libya

TRIPOLI, LIBYA


Home > Africa > Libya
Elevation: 266 feet     Latitude: 32 40N     Longitude: 013 09E

WEATHER
 
SELECT A DAY
Number of Records: 166,740;   Date Range: 7/1/96 - 7/11/14
 
SHARE

PRINT THIS DATA

[ ← Previous Day ]
WEATHER ALMANAC - JANUARY 31, 2013
[ Next Day → ]
[ °C ]   °F
Weather ElementAverageHighLow
Temperature55.9 °F68 °F (2:20 pm)44.6 °F (7:20 am)
Dewpoint39.1 °F44.6 °F (10:50 pm)35.6 °F (6:50 am)
Humidity54.2 %82 % (12:50 am)22 % (4:00 pm)
Barometer30.30 in30.34 in (10:00 am)30.27 in (2:20 am)
Wind Speed9 mph15 mph (11:20 am)
Weather ElementAverage
Visibility6.6 mi
Wind DirectionW (272.4 °)

Weather ElementTotal
Precipitation---
Heating Degree Days8.7 (Base 65)
Growing Degree Days6.3 (Base 50)
Averaged from 37 records on January 31, 2013
WEATHER CONDITIONS BREAKOUT
WIND DIRECTION BREAKOUT
WEATHER BY HOUR - JANUARY 31, 2013
[ °C ]   °F
Local TimeTemperatureDewpointHumidityBarometerVisibilityWind DirectionWind SpeedGust SpeedPrecipitationEventsConditions
12:50 AM48.2 °F42.8 °F82 %30.30 inWSW (240°)6.9 mphClear
1:20 AM48.2 °F41.0 °F76 %30.30 inWest (260°)6.9 mphClear
1:50 AM48.2 °F41.0 °F76 %30.30 inWSW (250°)6.9 mphClear
2:20 AM48.2 °F39.2 °F71 %30.27 inWest (260°)8.1 mphClear
2:50 AM48.2 °F39.2 °F71 %30.27 inWest (260°)8.1 mphClear
3:50 AM48.2 °F37.4 °F66 %30.27 inWest (260°)11.5 mphClear
6:50 AM46.4 °F35.6 °F66 %30.30 inWSW (250°)10.4 mphClear
7:00 AM46.0 °F36.0 °F59 %30.32 in9.0 miWSW (250°)11.5 mphScattered Clouds
7:20 AM44.6 °F35.6 °F71 %30.30 inWSW (250°)9.2 mphClear
7:50 AM48.2 °F37.4 °F66 %30.30 inWSW (250°)11.5 mphClear
8:20 AM48.2 °F35.6 °F62 %30.30 inWSW (250°)9.2 mphClear
8:50 AM51.8 °F35.6 °F54 %30.30 inWSW (250°)10.4 mphClear
9:50 AM57.2 °F37.4 °F48 %30.30 inWest (260°)11.5 mphClear
10:00 AM57.0 °F38.0 °F37 %30.34 in9.0 miWest (260°)11.5 mphPartly Cloudy
10:20 AM59.0 °F37.4 °F45 %30.33 inWest (270°)13.8 mphClear
10:50 AM60.8 °F39.2 °F45 %30.33 inWest (280°)13.8 mphClear
11:20 AM62.6 °F39.2 °F42 %30.30 inWNW (290°)15.0 mphClear
11:50 AM62.6 °F39.2 °F42 %30.30 inWNW (290°)13.8 mphClear
12:50 PM64.4 °F41.0 °F42 %30.27 inWNW (290°)12.7 mphClear
1:00 PM65.0 °F40.0 °F29 %30.31 in9.0 miWNW (290°)12.7 mphScattered Clouds
1:50 PM66.2 °F37.4 °F35 %30.27 inNW (320°)12.7 mphClear
2:20 PM68.0 °F37.4 °F33 %30.27 inNW (310°)9.2 mphClear
2:50 PM68.0 °F37.4 °F33 %30.27 inNNW (330°)10.4 mphClear
3:50 PM66.2 °F35.6 °F32 %30.27 inNNW (330°)10.4 mphClear
4:00 PM66.0 °F36.0 °F22 %30.29 in9.0 miNNW (330°)10.4 mphClear
4:20 PM64.4 °F35.6 °F34 %30.27 inNNW (330°)8.1 mphClear
4:50 PM64.4 °F35.6 °F34 %30.27 inNNW (330°)10.4 mphClear
5:50 PM60.8 °F41.0 °F48 %30.27 inWNW (300°)4.6 mphClear
6:50 PM59.0 °F41.0 °F51 %30.30 inWNW (290°)4.6 mphClear
7:00 PM58.0 °F41.0 °F41 %30.33 in6.0 miWNW (290°)4.6 mph
7:50 PM55.4 °F41.0 °F58 %30.30 inWest (270°)2.3 mphClear
8:50 PM53.6 °F42.8 °F67 %30.30 inWest (280°)6.9 mphClear
9:50 PM51.8 °F42.8 °F71 %30.30 in5.0 miWSW (240°)3.5 mph
10:00 PM52.0 °F42.0 °F61 %30.32 in5.0 miWSW (240°)3.5 mphHaze
10:50 PM51.8 °F44.6 °F76 %30.33 in5.0 miSSW (210°)4.6 mph
11:20 PM50.0 °F44.6 °F82 %30.33 in5.0 miSSW (210°)6.9 mph
11:50 PM50.0 °F42.8 °F76 %30.33 in4.3 miSSW (210°)5.8 mph
Hourly data recorded from HLLT, located miles away from Tripoli, Libya







STORIES FROM OUR PARTNERS